Regional Weather Roundup
Issued by NWS

Home | Current Version | Previous Version | Text Only | Print | Product List | Glossary On
Versions: 1 2 3 4 5 6 7 8 9 10 11 12 13 14 15 16 17 18 19 20 21 22 23 24 25 26 27 28 29 30 31 32 33 34 35 36 37 38 39 40 41 42 43 44 45 46 47 48 49 50
969
ASUS43 KMKX 310700
RWRWI

WISCONSIN REGIONAL WEATHER ROUNDUP
NATIONAL WEATHER SERVICE MILWAUKEE/SULLIVAN WI
200 AM CDT WED AUG 31 2016

NOTE: "FAIR" INDICATES FEW OR NO CLOUDS BELOW 12,000 FEET WITH NO
SIGNIFICANT WEATHER AND/OR OBSTRUCTIONS TO VISIBILITY.

WIZ001-002-006>008-014>016-023>028-310800-
NORTHWEST WISCONSIN

CITY           SKY/WX    TMP DP  RH WIND       PRES   REMARKS
SUPERIOR ARPT  PTCLDY    49  49 100 CALM      30.18S
ASHLAND        CLEAR     56  50  80 NW7       30.17R
HAYWARD        CLEAR     49  47  93 CALM      30.19R
SIREN          CLEAR     53  52  96 CALM      30.19F
CUMBERLAND     CLEAR     54  52  94 CALM      30.20R
RICE LAKE      CLEAR     53  52  96 CALM      30.20S
CHETEK         NOT AVBL
LADYSMITH      CLEAR     55  52  89 NW5       30.20R
EAU CLAIRE     NOT AVBL
MENOMONIE      CLEAR     60  57  91 CALM      30.18S
NEW RICHMOND   CLEAR     56  55  99 CALM      30.19S
OSCEOLA        PTCLDY    55  55 100 CALM      30.22S FOG
$$

WIZ003>005-009-010-017-018-310800-
NORTH CENTRAL WISCONSIN

CITY           SKY/WX    TMP DP  RH WIND       PRES   REMARKS
MANITOWISH WTR NOT AVBL
ARBOR VITAE    CLEAR     52  50  93 CALM      30.16S
WOODRUFF       CLEAR     52  50  93 CALM      30.16S
RHINELANDER    CLEAR     49  49 100 CALM      30.17S
EAGLE RIVER    CLEAR     47  47 100 CALM      30.15F FOG
LAND O LAKES   CLEAR     45  45 100 CALM      30.17S
PHILLIPS       CLEAR     51  51 100 CALM      30.17R
TOMAHAWK       CLEAR     46  45  96 CALM      30.17S
MEDFORD        CLEAR     48  48 100 CALM      30.16S
MERRILL        CLEAR     49  49  99 CALM      30.17S
$$

WIZ029-030-035-036-043>047-310800-
CENTRAL WISCONSIN

CITY           SKY/WX    TMP DP  RH WIND       PRES   REMARKS
WAUSAU         CLEAR     55  51  86 CALM      30.14S
MOSINEE        CLEAR     55  50  82 NE5       30.17R
MARSHFIELD     CLEAR     56  52  86 CALM      30.15F
STEVENS POINT  CLEAR     55  51  86 CALM      30.16S
WAUPACA        CLEAR     62  58  86 NW3       30.13F
WAUTOMA        CLEAR     63  56  78 N6        30.13S
WISC RAPIDS    CLEAR     59  52  77 NE5       30.15F
CAMP DOUGLAS   NOT AVBL
$$

WIZ011>013-019>022-031-037>040-048>050-310800-
NORTHEAST WISCONSIN

CITY           SKY/WX    TMP DP  RH WIND       PRES   REMARKS
ANTIGO         CLEAR     51  50  97 CALM      30.17R
SHAWANO        CLEAR     63  57  82 N6        30.14R
OCONTO         NOT AVBL
STURGEON BAY   CLEAR     63  55  75 NE8       30.12S
GREEN BAY      CLEAR     61  61 100 N8        30.11F
MANITOWOC      MOCLDY    66  59  77 N6        30.10F
APPLETON       CLEAR     63  61  94 NE7       30.11S
CLINTONVILLE   CLEAR     61  55  82 N3        30.13S
OSHKOSH        CLOUDY    69  62  78 NE9G21    30.10S
$$

WIZ032>034-041-042-053>061-310800-
SOUTHWEST WISCONSIN

CITY           SKY/WX    TMP DP  RH WIND       PRES   REMARKS
LA CROSSE      CLOUDY    64  61  90 N3        30.14S
SPARTA         CLOUDY    55  55 100 CALM      30.15F
VIROQUA        CLOUDY    61  58  91 N6        30.16R
BOSCOBEL       CLOUDY    63  61  93 CALM      30.12F FOG
PRAIRIE DU CHI CLEAR     64  62  93 CALM      30.12F
PLATTEVILLE    CLEAR     66  66 100 N6        30.12S
$$

WIZ056-057-062-063-064-067-068-310800-
SOUTH CENTRAL WISCONSIN

CITY           SKY/WX    TMP DP  RH WIND       PRES   REMARKS
REEDSBURG      NOT AVBL
BARABOO/DELLS  PTCLDY    65  59  82 CALM      30.12S
LONE ROCK      NOT AVBL
MINERAL POINT  CLEAR     66  64  94 N7        30.12F
MADISON        PTCLDY    67  63  87 N7        30.09F
MIDDLETON      MOCLDY    67  65  91 N5        30.11S
WATERTOWN      CLEAR     68  66  93 N5        30.08S
MONROE         PTCLDY    68  64  88 N6        30.10S
JANESVILLE     CLEAR     66  64  94 NW5       30.08S
$$

WIZ051-052-058>065-066-070>072-310800-
SOUTHEAST WISCONSIN

CITY           SKY/WX    TMP DP  RH WIND       PRES   REMARKS
MILWAUKEE      MOCLDY    70  65  84 N16G25    30.06R
WAUKESHA       CLEAR     66  63  88 NW3       30.09R
MILWAUKEE/TIMM CLEAR     68  63  83 N15       30.08R
RACINE         MOCLDY    71  65  81 N18G24    30.06S
BURLINGTON     PTCLDY    66  65  96 NW6       30.06S
KENOSHA        MOCLDY    70  67  90 N6        30.05S
FOND DU LAC    CLOUDY    70  64  81 NE14      30.10R
SHEBOYGAN      CLOUDY    67  58  72 N13G21    30.09S
WEST BEND      CLOUDY    68  63  83 NE12      30.09R
JUNEAU         PTCLDY    67  62  85 N8        30.10S
$$

LSZ147-162-310800-
LAKE SUPERIOR

STATION/POSITION TIME  TEMP    WIND        PRES    WAVE
                       AIR SEA DIR/SP/G            HT/PER
                 (UTC) (F)     (DEG/KT/KT) (MB)    (FT/S)
W MID LAKE BUOY  0550   67 68  340/ 10/ 14 1019.8R   1
DEVILS ISLAND    0600   65     350/ 12/ 13 1021.1R
SAXON HARBOR     0640   58     190/  4/  8 1021.0R
$$

LMZ867-665-643>646-310800-
LAKE MICHIGAN

STATION/POSITION TIME  TEMP    WIND        PRES    WAVE
                       AIR SEA DIR/SP/G            HT/PER
                 (UTC) (F)     (DEG/KT/KT) (MB)    (FT/S)
CHAMBERS ISLAND  0600   67     340/ 12/ 14 1019.6R
S GREEN BAY BUOY 0500   69 72   50/ 17/ 19 1018.8
N MID LAKE BUOY  0550   67 71  360/ 16/ 19 1018.5R   2/ 4
NORTHPORT PIER   0600   67      10/  9/ 11 1019.6R
SISTER BAY       0607   64      CALM  /  3   N/A
ALGOMA LAKESHORE 0600          360/  6/  9   N/A
KEWAUNEE LAKESHO 0600   66     360/  7/ 12 1019.0R
SHEBOYGAN LAKESH 0600   65     360/ 18/ 20 1018.3R
PORT WASHINGTON  0640   69     360/  7/ 12 1019.0R
ATWATER BUOY     0600   68     330/  6/ 10   N/A
MILWAUKEE LAKESH 0610   72     350/ 15/ 21   N/A
S MID LAKE BUOY  0550   74 75  260/  8/ 10 1016.3F   0
KENOSHA   LAKESH 0600   72     300/  9/ 11 1016.9F
$$

TC  - TEMPERATURE IN CELSIUS
VSB - VISIBILITY IN STATUTE MILES
WCI - WIND CHILL INDEX
HX  - HEAT INDEX





USA.gov is the U.S. government's official web portal to all federal, state and local government web resources and services.